FLOCK 3P-2

Last updated on Wed Feb 14 2018 16:20:20 GMT+0000 (Coordinated Universal Time)

1 41966U 17008U 18044.79642306 .00002231 00000-0 95248-4 0 9996 2 41966 97.4658 110.2840 0009823 69.8090 290.4202 15.23910878 55156
UTC large
Height (km)
Speed (km/s)
/
Latitude / Longitude
Inclination (degrees)
Orbital Period (minutes)
Azimuth
Elevation
Range (km)
Doppler Factor

Next 0 passes for location: London (51.5072 / 0.1276)

Sorry there are no passes over London.